TimeCST,TemperatureF,Dew PointF,Humidity,Sea Level PressureIn,VisibilityMPH,Wind Direction,Wind SpeedMPH,Gust SpeedMPH,PrecipitationIn,Events,Conditions,WindDirDegrees,DateUTC
12:15 AM,26.2,24.8,94,30.20,5.0,NW,13.8,-,N/A,,Overcast,310,2013-12-25 06:15:00
12:35 AM,26.1,23.7,91,30.20,10.0,NW,16.1,-,N/A,,Overcast,320,2013-12-25 06:35:00
12:55 AM,25.7,23.0,89,30.21,10.0,NW,10.4,-,N/A,,Overcast,320,2013-12-25 06:55:00
1:15 AM,25.5,22.1,87,30.21,10.0,NW,15.0,-,N/A,,Overcast,320,2013-12-25 07:15:00
1:35 AM,25.2,21.6,86,30.21,10.0,NW,11.5,-,N/A,,Overcast,320,2013-12-25 07:35:00
1:55 AM,24.6,20.8,86,30.22,10.0,NW,10.4,-,N/A,,Overcast,310,2013-12-25 07:55:00
2:15 AM,24.3,20.5,85,30.21,10.0,NW,10.4,-,N/A,,Overcast,320,2013-12-25 08:15:00
2:35 AM,23.4,19.4,85,30.22,10.0,NW,8.1,-,N/A,,Overcast,310,2013-12-25 08:35:00
2:55 AM,21.9,18.1,85,30.23,10.0,NW,9.2,-,N/A,,Mostly Cloudy,310,2013-12-25 08:55:00
3:15 AM,21.2,17.4,85,30.23,10.0,WNW,6.9,-,N/A,,Overcast,300,2013-12-25 09:15:00
3:35 AM,21.6,18.1,87,30.22,10.0,NNW,8.1,-,N/A,,Overcast,330,2013-12-25 09:35:00
3:55 AM,22.6,19.0,86,30.22,10.0,NNW,3.5,-,N/A,,Overcast,330,2013-12-25 09:55:00
4:15 AM,23.0,19.8,87,30.23,10.0,NW,5.8,-,N/A,,Overcast,320,2013-12-25 10:15:00
4:35 AM,23.4,20.3,88,30.24,10.0,NW,6.9,-,N/A,,Overcast,320,2013-12-25 10:35:00
4:55 AM,23.7,20.8,89,30.24,10.0,NW,3.5,-,N/A,,Overcast,310,2013-12-25 10:55:00
5:15 AM,23.9,21.0,89,30.24,10.0,Calm,Calm,-,N/A,,Overcast,0,2013-12-25 11:15:00
5:35 AM,23.9,21.0,89,30.24,10.0,Calm,Calm,-,N/A,,Overcast,0,2013-12-25 11:35:00
5:55 AM,23.9,21.2,89,30.24,10.0,Calm,Calm,-,N/A,,Overcast,0,2013-12-25 11:55:00
6:15 AM,23.7,21.2,90,30.23,10.0,SSW,3.5,-,N/A,,Overcast,200,2013-12-25 12:15:00
6:35 AM,23.4,21.0,91,30.23,7.0,SW,3.5,-,N/A,,Overcast,220,2013-12-25 12:35:00
6:55 AM,21.4,19.0,91,30.22,7.0,South,4.6,-,N/A,,Scattered Clouds,180,2013-12-25 12:55:00
7:15 AM,19.4,17.6,93,30.21,5.0,South,6.9,-,N/A,,Clear,190,2013-12-25 13:15:00
7:35 AM,21.0,19.4,93,30.21,7.0,South,9.2,-,N/A,,Clear,190,2013-12-25 13:35:00
7:55 AM,21.4,19.6,93,30.21,7.0,South,9.2,-,N/A,,Clear,190,2013-12-25 13:55:00
8:15 AM,21.9,20.1,93,30.22,7.0,SSW,9.2,-,N/A,,Clear,200,2013-12-25 14:15:00
8:35 AM,22.6,20.5,91,30.22,7.0,SSW,6.9,-,N/A,,Clear,200,2013-12-25 14:35:00
8:55 AM,23.7,21.2,90,30.22,10.0,SSW,9.2,-,N/A,,Clear,200,2013-12-25 14:55:00
9:15 AM,24.3,21.2,88,30.22,10.0,SSW,9.2,-,N/A,,Clear,210,2013-12-25 15:15:00
9:35 AM,25.7,21.6,84,30.22,10.0,SW,6.9,-,N/A,,Clear,220,2013-12-25 15:35:00
9:55 AM,28.2,22.8,80,30.22,10.0,WSW,11.5,-,N/A,,Clear,240,2013-12-25 15:55:00
10:15 AM,29.7,23.0,76,30.23,10.0,WSW,9.2,-,N/A,,Clear,250,2013-12-25 16:15:00
10:35 AM,32.2,24.8,74,30.23,10.0,West,9.2,-,N/A,,Clear,260,2013-12-25 16:35:00
10:55 AM,34.9,25.5,69,30.24,10.0,WNW,12.7,16.1,N/A,,Clear,290,2013-12-25 16:55:00
11:15 AM,36.7,26.1,65,30.24,10.0,WNW,10.4,-,N/A,,Clear,300,2013-12-25 17:15:00
11:35 AM,38.3,27.1,64,30.23,10.0,WNW,10.4,18.4,N/A,,Clear,290,2013-12-25 17:35:00
11:55 AM,39.6,28.0,63,30.23,10.0,WNW,18.4,24.2,N/A,,Clear,300,2013-12-25 17:55:00
12:15 PM,40.1,29.1,65,30.22,10.0,WNW,15.0,21.9,N/A,,Clear,300,2013-12-25 18:15:00
12:35 PM,41.0,28.9,62,30.22,10.0,NW,16.1,24.2,N/A,,Scattered Clouds,310,2013-12-25 18:35:00
12:55 PM,41.0,27.5,59,30.21,10.0,NW,18.4,26.5,N/A,,Scattered Clouds,310,2013-12-25 18:55:00
1:15 PM,41.2,26.2,55,30.21,10.0,NW,23.0,27.6,N/A,,Scattered Clouds,320,2013-12-25 19:15:00
1:35 PM,41.7,26.8,55,30.21,10.0,NNW,19.6,32.2,N/A,,Scattered Clouds,330,2013-12-25 19:35:00
1:55 PM,41.9,26.4,54,30.21,10.0,NW,23.0,29.9,N/A,,Mostly Cloudy,310,2013-12-25 19:55:00
2:15 PM,42.4,26.6,54,30.22,10.0,NW,15.0,23.0,N/A,,Overcast,320,2013-12-25 20:15:00
2:35 PM,40.8,25.0,53,30.22,10.0,NW,23.0,28.8,N/A,,Overcast,320,2013-12-25 20:35:00
2:55 PM,40.3,25.7,56,30.23,10.0,NW,17.3,-,N/A,,Overcast,310,2013-12-25 20:55:00
3:15 PM,39.6,25.7,58,30.23,10.0,NW,18.4,-,N/A,,Overcast,320,2013-12-25 21:15:00
3:35 PM,39.4,25.5,58,30.24,10.0,NW,18.4,25.3,N/A,,Overcast,310,2013-12-25 21:35:00
3:55 PM,39.4,25.9,58,30.25,10.0,NW,16.1,23.0,N/A,,Scattered Clouds,320,2013-12-25 21:55:00
4:15 PM,37.9,25.7,61,30.26,10.0,NW,15.0,18.4,N/A,,Scattered Clouds,310,2013-12-25 22:15:00
4:35 PM,38.8,25.5,59,30.26,10.0,NW,15.0,19.6,N/A,,Mostly Cloudy,310,2013-12-25 22:35:00
4:55 PM,38.3,26.6,63,30.27,10.0,NW,13.8,-,N/A,,Overcast,320,2013-12-25 22:55:00
5:15 PM,36.5,25.7,65,30.26,10.0,NW,10.4,-,N/A,,Mostly Cloudy,320,2013-12-25 23:15:00
5:35 PM,35.6,25.9,68,30.28,10.0,NNW,11.5,16.1,N/A,,Clear,330,2013-12-25 23:35:00
5:55 PM,34.3,24.8,68,30.28,10.0,NW,10.4,-,N/A,,Clear,320,2013-12-25 23:55:00
6:15 PM,32.9,23.9,69,30.28,10.0,NW,8.1,-,N/A,,Clear,310,2013-12-26 00:15:00
6:35 PM,31.1,22.8,71,30.29,10.0,WNW,5.8,-,N/A,,Clear,300,2013-12-26 00:35:00
6:55 PM,30.6,22.1,71,30.30,10.0,WNW,5.8,-,N/A,,Clear,300,2013-12-26 00:55:00
7:15 PM,29.5,21.9,73,30.30,10.0,NW,6.9,-,N/A,,Clear,310,2013-12-26 01:15:00
7:35 PM,28.9,21.6,74,30.30,10.0,WNW,5.8,-,N/A,,Clear,300,2013-12-26 01:35:00
7:55 PM,27.7,21.2,77,30.31,10.0,West,3.5,-,N/A,,Clear,280,2013-12-26 01:55:00
8:15 PM,29.3,21.7,73,30.30,10.0,WSW,3.5,-,N/A,,Clear,250,2013-12-26 02:15:00
8:35 PM,28.2,21.0,74,30.30,10.0,Calm,Calm,-,N/A,,Clear,0,2013-12-26 02:35:00
8:55 PM,28.0,21.0,75,30.30,10.0,WSW,3.5,-,N/A,,Clear,240,2013-12-26 02:55:00
9:15 PM,28.2,20.7,73,30.29,10.0,SW,5.8,-,N/A,,Clear,230,2013-12-26 03:15:00
9:35 PM,26.6,20.3,77,30.28,10.0,SW,5.8,-,N/A,,Clear,220,2013-12-26 03:35:00
9:55 PM,26.2,21.0,81,30.27,10.0,SW,6.9,-,N/A,,Clear,220,2013-12-26 03:55:00
10:15 PM,25.7,20.7,81,30.27,10.0,SW,5.8,-,N/A,,Clear,230,2013-12-26 04:15:00
10:35 PM,25.9,21.0,82,30.26,10.0,SSW,5.8,-,N/A,,Clear,210,2013-12-26 04:35:00
10:55 PM,26.6,21.4,81,30.26,10.0,SSW,6.9,-,N/A,,Clear,210,2013-12-26 04:55:00
11:15 PM,26.4,21.2,81,30.26,10.0,SSW,4.6,-,N/A,,Clear,210,2013-12-26 05:15:00
11:35 PM,26.6,21.6,81,30.26,10.0,SW,6.9,-,N/A,,Clear,220,2013-12-26 05:35:00
11:55 PM,27.1,21.6,80,30.26,10.0,South,5.8,-,N/A,,Clear,190,2013-12-26 05:55:00